Погода в Подсосново

Россия / Алтайский край     53°22′23″N   78°55′09″E
темп.,
°C
ветер,
м/с
пор.,
м/с
влажн.,
%
обл.,
%
осадки,
мм/ч
давл.,
гПа
погр.,
м
1 августа, вс
вс101:00+19юз224666 0.0 101111
04:00+18ююз334657 0.0 101019
07:00+19ююз224722 0.0 101015
10:00+24юв343596 0.0 1010356
13:00+25вюв343644 0.0 1009383
16:00+30св33270 0.0 10071220
19:00+29с44310 0.0 10071225
22:00+22с465197 0.0 100772
2 августа, пн
пн201:00+19с48708 0.0 1007144
04:00+18ссз347674 0.0 100646
07:00+18сз33775 0.0 100655
10:00+24зсз34535 0.0 1006449
13:00+29зюз46400 0.0 10051807
16:00+30зсз7839100 0.0 10042675
19:00+30сз6839100 0.0 10042001
22:00+22ссз476894 0.0 1006142
3 августа, вт
вт301:00+20сз117998 0.1 100611
04:00+19с118489 0.8 100612
07:00+18зсз338775 2.0 100759
10:00+22зсз57665 0.4 1007558
13:00+24сз575312 3.1 10081628
16:00+26сз474243 0.1 10082090
19:00+24сз47455 0.1 1008950
22:00+20зсз3361100 0.0 100926
4 августа, ср
ср401:00+19сз3667100 0.0 1009138
04:00+16сз227926 0.2 100915
07:00+16зсз23845 0.2 101049
10:00+21зсз465899 0.0 1010624
13:00+24зсз57445 0.0 10101889
16:00+25зсз674137 0.0 10091698
19:00+24зюз454597 0.1 10091166
22:00+17зсз357980 1.3 101091
5 августа, чт
чт501:00+17з227854 1.3 100828
04:00+16с237972 0.0 100855
07:00+15с22825 0.0 100926
10:00+20ссз336778 0.0 1009507
13:00+23сз555292 0.0 10091438
16:00+24сз555160 0.4 10091725
19:00+21ссз356110 0.8 1009749
22:00+18ссз36721 0.0 1010101